Egedesminde, Greenland

5:36 AM -03 on December 12, 2019 (GMT -0300)
Egedesminde

Weather History for 04224 - July, 2019

Change the Weather History Date:

Monday, July 22, 2019

  Actual Average Record
Temperature  
Mean Temperature 44 °F -  
Max Temperature 49 °F - - ()
Min Temperature 40 °F - - ()
Degree Days  
Heating Degree Days 21    
Moisture  
Dew Point 42 °F    
Average Humidity 95    
Maximum Humidity 98    
Minimum Humidity 89    
Precipitation  
Precipitation 0.00 in - - ()
Sea Level Pressure  
Sea Level Pressure 29.93 in    
Wind  
Wind Speed 4 mph ()    
Max Wind Speed 8 mph    
Max Gust Speed -    
Visibility 0.2 miles    
Events Fog    
T = Trace of Precipitation, MM = Missing Value Source: Averaged Metar Reports

Daily Weather History Graph

Daily Weather History Graph

Search for Another Location

Airport or City:

Astronomy

Jul. 22, 2019 Rise Set
Actual Time 2:03 AM -02 12:56 AM -02
Civil Twilight Sun does not rise Sun does not rise
Nautical Twilight Sun does not rise Sun does not rise
Astronomical Twilight Sun does not rise Sun does not rise
Moon 12:31 AM -02 (7/22) 11:00 AM -02 (7/22)
Length of Visible Light 24h 00m
Length of Day
22h 53m
Waning Gibbous, 73% of the Moon is Illuminated
Jul 22
Waning Gibbous
Jul 24
Last Quarter
Aug 1
New
Aug 7
First Quarter
Aug 15
Full

Hourly Weather History & Observations

Time (-02) Temp. Dew Point Humidity Pressure Visibility Wind Dir Wind Speed Gust Speed Precip Events Conditions
12:00 AM 44 °F 42 °F 89% 29.95 in 28 mi WSW 6.9 mph - -  
1:00 AM 42 °F 40 °F 91% 29.95 in 28 mi WSW 8.1 mph - -   Partly Cloudy
2:00 AM 43 °F 42 °F 97% 29.95 in 31 mi SW 3.5 mph - -   Overcast
3:00 AM 42 °F 42 °F 98% 29.94 in 1 mi West 4.6 mph - -   Mist
4:00 AM 41 °F 40 °F 94% 29.95 in 0 mi WSW 6.9 mph - - Fog Fog
5:00 AM 40 °F 39 °F 95% 29.95 in 0 mi West 4.6 mph - - Fog Fog
6:00 AM 40 °F 39 °F 96% 29.96 in 0 mi West 4.6 mph - - Fog Fog
7:00 AM 40 °F 39 °F 95% 29.96 in 0 mi West 2.3 mph - - Fog Fog
8:00 AM 40 °F 39 °F 97% 29.96 in 0 mi WNW 3.5 mph - - Fog Fog
9:00 AM 41 °F 40 °F 94% 29.96 in 2 mi NNW 2.3 mph - - Fog Fog
10:00 AM 42 °F 41 °F 95% 29.96 in 0 mi WNW 2.3 mph - - Fog Fog
11:00 AM 42 °F 41 °F 97% 29.95 in 0 mi North 4.6 mph - - Fog Fog
12:00 PM 43 °F 42 °F 94% 29.95 in 0 mi NNW 5.8 mph - - Fog Fog
1:00 PM 43 °F 42 °F 94% 29.94 in 0 mi North 6.9 mph - - Fog Patches of Fog
2:00 PM 44 °F 43 °F 95% 29.93 in 0 mi NNE 5.8 mph - - Fog Patches of Fog
3:00 PM 43 °F 43 °F 98% 29.92 in 0 mi North 3.5 mph - - Fog Patches of Fog
4:00 PM 45 °F 44 °F 96% 29.91 in 28 mi North 4.6 mph - - Fog Fog
5:00 PM 46 °F 45 °F 96% 29.91 in 28 mi NNW 5.8 mph - -   Clear
7:00 PM 44 °F 43 °F 95% 29.89 in 0 mi NNE 3.5 mph - - Fog Patches of Fog
8:00 PM 47 °F 46 °F 96% 29.88 in 25 mi North 5.8 mph - - Fog Fog
9:00 PM 48 °F 47 °F 96% 29.88 in 28 mi North 3.5 mph - -   Clear
10:00 PM 48 °F 47 °F 96% 29.87 in 28 mi North 2.3 mph - -  
11:00 PM 49 °F 48 °F 93% 29.86 in 28 mi North 2.3 mph - -